REU274 FMEE-FMCZ

Flight info

Callsign REU274
Flight time N/A
Altitude 30000
Route DOBUT UB790 SOAVI
Aircraft B77W/H-SDE1E2E3FGHIJ2J3J4J5M1RWXY/LB1D1

Departure

Time 2026-04-24 04:45
Airport Roland Garros Airport (FMEE)

Arrival

Time N/A
Airport Dzaoudzi Pamandzi International Airport (FMCZ)
Time Latitude Longitude Altitude Speed Heading
2026-04-24 04:35 -20.89078 55.51237 116 ft 0 kts 206°
2026-04-24 04:37 -20.89071 55.51241 116 ft 2 kts 206°
2026-04-24 04:38 -20.89057 55.51248 116 ft 2 kts 206°
2026-04-24 04:38 -20.89044 55.51255 116 ft 2 kts 206°
2026-04-24 04:38 -20.89030 55.51262 116 ft 2 kts 206°
2026-04-24 04:38 -20.89016 55.51269 116 ft 2 kts 217°
2026-04-24 04:39 -20.89010 55.51282 117 ft 2 kts 276°
2026-04-24 04:39 -20.89012 55.51291 117 ft 1 kts 297°
2026-04-24 04:39 -20.89013 55.51293 117 ft 0 kts 296°
2026-04-24 04:41 -20.89004 55.51274 117 ft 5 kts 297°
2026-04-24 04:41 -20.88983 55.51228 117 ft 8 kts 303°
2026-04-24 04:41 -20.88933 55.51188 117 ft 10 kts 337°
2026-04-24 04:42 -20.88855 55.51158 117 ft 13 kts 342°
2026-04-24 04:42 -20.88765 55.51120 117 ft 14 kts 321°
2026-04-24 04:42 -20.88711 55.51019 117 ft 16 kts 287°
2026-04-24 04:42 -20.88684 55.50894 117 ft 18 kts 282°
2026-04-24 04:43 -20.88655 55.50755 117 ft 19 kts 282°
2026-04-24 04:43 -20.88624 55.50605 118 ft 20 kts 283°
2026-04-24 04:43 -20.88590 55.50528 118 ft 18 kts 302°
2026-04-24 04:43 -20.88598 55.50497 118 ft 3 kts 155°
2026-04-24 04:44 -20.88605 55.50515 118 ft 0 kts 104°
2026-04-24 04:44 -20.88606 55.50516 118 ft 1 kts 104°
2026-04-24 04:44 -20.88620 55.50581 118 ft 16 kts 102°
2026-04-24 04:44 -20.88673 55.50844 118 ft 73 kts 102°
2026-04-24 04:45 -20.88841 55.51672 117 ft 151 kts 102°
2026-04-24 04:45 -20.89091 55.52947 515 ft 185 kts 103°
2026-04-24 04:45 -20.89179 55.54242 1466 ft 182 kts 81°
2026-04-24 04:45 -20.88690 55.55523 1963 ft 198 kts 56°
2026-04-24 04:46 -20.87589 55.56519 2425 ft 220 kts 27°
2026-04-24 04:46 -20.86015 55.56820 2890 ft 243 kts
2026-04-24 04:46 -20.84269 55.56670 3419 ft 260 kts 357°
2026-04-24 04:46 -20.82427 55.56470 4222 ft 265 kts 356°
2026-04-24 04:47 -20.80590 55.56267 5030 ft 269 kts 356°
2026-04-24 04:47 -20.78723 55.56056 5827 ft 273 kts 354°
2026-04-24 04:47 -20.76869 55.55519 6583 ft 279 kts 342°
2026-04-24 04:47 -20.75057 55.54740 7354 ft 283 kts 340°
2026-04-24 04:48 -20.73216 55.53923 8126 ft 286 kts 340°
2026-04-24 04:48 -20.71357 55.53107 8887 ft 289 kts 340°
2026-04-24 04:48 -20.69483 55.52289 9644 ft 292 kts 340°
2026-04-24 04:48 -20.67569 55.51456 10343 ft 298 kts 340°
2026-04-24 04:49 -20.65587 55.50596 10689 ft 317 kts 340°
2026-04-24 04:49 -20.63438 55.49662 10983 ft 339 kts 340°
2026-04-24 04:49 -20.61213 55.48695 11467 ft 353 kts 340°
2026-04-24 04:49 -20.58970 55.47592 12312 ft 357 kts 330°
2026-04-24 04:50 -20.57003 55.45911 13177 ft 364 kts 315°
2026-04-24 04:50 -20.55402 55.43811 14047 ft 369 kts 309°
2026-04-24 04:50 -20.53850 55.41598 14962 ft 375 kts 308°
2026-04-24 04:50 -20.52296 55.39375 15939 ft 379 kts 308°
2026-04-24 04:51 -20.50692 55.37086 16875 ft 384 kts 308°
2026-04-24 04:51 -20.49100 55.34816 17753 ft 389 kts 308°
2026-04-24 04:51 -20.47462 55.32484 18631 ft 394 kts 308°
2026-04-24 04:51 -20.45805 55.30129 19465 ft 400 kts 308°
2026-04-24 04:52 -20.44150 55.27775 20270 ft 405 kts 308°
2026-04-24 04:52 -20.42444 55.25352 21093 ft 410 kts 308°
2026-04-24 04:52 -20.40724 55.22910 21847 ft 415 kts 308°
2026-04-24 04:52 -20.38995 55.20457 22527 ft 422 kts 308°
2026-04-24 04:53 -20.37205 55.17918 23249 ft 427 kts 308°
2026-04-24 04:53 -20.35415 55.15380 23931 ft 432 kts 307°
2026-04-24 04:53 -20.33602 55.12810 24585 ft 437 kts 307°
2026-04-24 04:53 -20.31773 55.10221 25229 ft 442 kts 307°
2026-04-24 04:54 -20.29917 55.07592 25817 ft 449 kts 307°
2026-04-24 04:54 -20.28026 55.04916 26409 ft 455 kts 307°
2026-04-24 04:54 -20.26137 55.02243 27127 ft 458 kts 307°
2026-04-24 04:54 -20.24213 54.99524 27802 ft 462 kts 307°
2026-04-24 04:55 -20.22257 54.96760 28435 ft 467 kts 307°
2026-04-24 04:55 -20.20310 54.94009 29130 ft 470 kts 306°
2026-04-24 04:55 -20.18334 54.91219 29700 ft 475 kts 306°
2026-04-24 04:55 -20.16343 54.88411 29941 ft 483 kts 306°
2026-04-24 04:56 -20.14292 54.85516 29953 ft 499 kts 306°
2026-04-24 04:56 -20.12173 54.82529 29958 ft 515 kts 307°
2026-04-24 04:56 -20.09982 54.79442 29955 ft 530 kts 306°
2026-04-24 04:56 -20.07725 54.76264 29959 ft 544 kts 306°
2026-04-24 04:57 -20.03134 54.69804 29953 ft 546 kts 306°
2026-04-24 04:57 -19.98521 54.63320 29960 ft 549 kts 306°
2026-04-24 04:58 -19.93922 54.56863 29957 ft 550 kts 306°
2026-04-24 04:58 -19.89295 54.50375 29955 ft 551 kts 307°
2026-04-24 04:59 -19.84676 54.43905 29951 ft 553 kts 307°
2026-04-24 04:59 -19.80007 54.37371 29950 ft 554 kts 306°
2026-04-24 05:00 -19.75368 54.30886 29943 ft 554 kts 306°
2026-04-24 05:00 -19.70711 54.24383 29946 ft 557 kts 306°
2026-04-24 05:01 -19.65999 54.17812 29949 ft 556 kts 306°
2026-04-24 05:01 -19.61308 54.11275 29952 ft 557 kts 306°
2026-04-24 05:02 -19.56608 54.04733 29953 ft 560 kts 306°
2026-04-24 05:02 -19.52015 53.98126 29946 ft 555 kts 300°
2026-04-24 05:03 -19.48821 53.90694 29954 ft 555 kts 286°
2026-04-24 05:03 -19.46393 53.82912 29953 ft 556 kts 285°
2026-04-24 05:04 -19.43988 53.75177 29950 ft 553 kts 285°
2026-04-24 05:04 -19.41580 53.67458 29949 ft 553 kts 285°
2026-04-24 05:05 -19.39147 53.59680 29951 ft 555 kts 285°
2026-04-24 05:05 -19.36697 53.51865 29957 ft 557 kts 285°
2026-04-24 05:06 -19.34115 53.44204 29958 ft 560 kts 291°
2026-04-24 05:06 -19.29947 53.37179 29961 ft 566 kts 306°
2026-04-24 05:07 -19.25041 53.30648 29953 ft 567 kts 307°
2026-04-24 05:07 -19.20102 53.24116 29953 ft 570 kts 307°
2026-04-24 05:08 -19.15163 53.17593 29952 ft 570 kts 307°
2026-04-24 05:08 -19.10204 53.11049 29953 ft 569 kts 307°
2026-04-24 05:09 -19.05210 53.04465 29956 ft 573 kts 306°
2026-04-24 05:09 -19.00228 52.97905 29958 ft 574 kts 306°
2026-04-24 05:10 -18.95228 52.91329 29960 ft 572 kts 306°
2026-04-24 05:10 -18.90256 52.84797 29960 ft 571 kts 306°
2026-04-24 05:11 -18.85279 52.78263 29948 ft 572 kts 306°
2026-04-24 05:11 -18.80314 52.71752 29950 ft 569 kts 306°
2026-04-24 05:12 -18.75318 52.65209 29952 ft 570 kts 306°
2026-04-24 05:12 -18.70345 52.58701 29950 ft 569 kts 306°
2026-04-24 05:13 -18.62885 52.48953 29954 ft 568 kts 306°
2026-04-24 05:14 -18.57935 52.42492 29952 ft 568 kts 306°
2026-04-24 05:14 -18.52953 52.35997 29953 ft 567 kts 306°
2026-04-24 05:15 -18.48009 52.29557 29949 ft 568 kts 306°
2026-04-24 05:15 -18.43038 52.23090 29951 ft 569 kts 306°
2026-04-24 05:16 -18.38053 52.16610 29951 ft 568 kts 306°
2026-04-24 05:16 -18.33066 52.10135 29952 ft 566 kts 306°
2026-04-24 05:17 -18.28104 52.03698 29953 ft 568 kts 306°
2026-04-24 05:17 -18.23111 51.97228 29955 ft 567 kts 306°
2026-04-24 05:18 -18.18102 51.90743 29958 ft 567 kts 306°
2026-04-24 05:18 -18.13150 51.84339 29958 ft 566 kts 306°
2026-04-24 05:19 -18.08163 51.77897 29958 ft 568 kts 306°
2026-04-24 05:19 -18.03161 51.71441 29959 ft 567 kts 306°
2026-04-24 05:20 -17.98185 51.65025 29962 ft 566 kts 306°
2026-04-24 05:20 -17.93183 51.58582 29961 ft 566 kts 306°
2026-04-24 05:21 -17.88213 51.52186 29949 ft 566 kts 306°
2026-04-24 05:21 -17.83210 51.45754 29946 ft 566 kts 306°
2026-04-24 05:22 -17.78222 51.39348 29946 ft 565 kts 306°
2026-04-24 05:22 -17.73267 51.32991 29943 ft 566 kts 307°
2026-04-24 05:23 -17.68292 51.26613 29939 ft 565 kts 307°
2026-04-24 05:23 -17.63289 51.20206 29937 ft 565 kts 307°
2026-04-24 05:24 -17.58311 51.13838 29934 ft 564 kts 307°
2026-04-24 05:24 -17.53331 51.07473 29929 ft 563 kts 307°
2026-04-24 05:25 -17.48366 51.01133 29931 ft 564 kts 307°
2026-04-24 05:25 -17.43365 50.94753 29934 ft 564 kts 307°
2026-04-24 05:26 -17.38414 50.88446 29940 ft 562 kts 306°
2026-04-24 05:26 -17.33443 50.82120 29948 ft 562 kts 306°
2026-04-24 05:27 -17.28481 50.75811 29949 ft 560 kts 307°
2026-04-24 05:27 -17.23514 50.69501 29950 ft 561 kts 307°
2026-04-24 05:28 -17.18558 50.63210 29955 ft 560 kts 307°
2026-04-24 05:28 -17.13590 50.56912 29963 ft 559 kts 306°
2026-04-24 05:29 -17.08626 50.50623 29966 ft 560 kts 307°
2026-04-24 05:29 -17.03677 50.44359 29967 ft 560 kts 307°
2026-04-24 05:30 -16.98720 50.38090 29972 ft 558 kts 306°
2026-04-24 05:30 -16.93754 50.31817 29969 ft 559 kts 307°
2026-04-24 05:31 -16.88787 50.25547 29963 ft 558 kts 307°
2026-04-24 05:31 -16.83827 50.19292 29963 ft 558 kts 307°
2026-04-24 05:32 -16.78858 50.13032 29966 ft 557 kts 307°
2026-04-24 05:32 -16.73945 50.06848 29966 ft 556 kts 307°
2026-04-24 05:33 -16.68964 50.00584 29968 ft 556 kts 307°
2026-04-24 05:33 -16.64017 49.94368 29972 ft 555 kts 307°
2026-04-24 05:34 -16.56629 49.85092 29986 ft 556 kts 307°
2026-04-24 05:34 -16.51678 49.78885 30000 ft 554 kts 307°
2026-04-24 05:35 -16.46737 49.72694 30013 ft 554 kts 307°
2026-04-24 05:35 -16.41783 49.66493 30023 ft 552 kts 307°
2026-04-24 05:36 -16.36886 49.60369 30027 ft 553 kts 307°
2026-04-24 05:36 -16.31956 49.54208 30030 ft 553 kts 307°
2026-04-24 05:37 -16.27003 49.48024 30035 ft 553 kts 307°
2026-04-24 05:37 -16.22092 49.41898 30044 ft 552 kts 307°
2026-04-24 05:38 -16.17136 49.35721 30045 ft 553 kts 307°
2026-04-24 05:38 -16.12235 49.29619 30050 ft 552 kts 307°
2026-04-24 05:39 -16.07305 49.23484 30067 ft 552 kts 307°
2026-04-24 05:39 -16.02357 49.17334 30072 ft 551 kts 307°
2026-04-24 05:40 -15.97420 49.11201 30070 ft 552 kts 308°
2026-04-24 05:40 -15.92502 49.05098 30070 ft 550 kts 307°
2026-04-24 05:41 -15.87557 48.98966 30061 ft 551 kts 307°
2026-04-24 05:41 -15.82629 48.92860 30055 ft 551 kts 308°
2026-04-24 05:42 -15.77737 48.86805 30058 ft 550 kts 308°
2026-04-24 05:42 -15.72789 48.80684 30058 ft 550 kts 308°
2026-04-24 05:43 -15.67876 48.74612 30058 ft 548 kts 308°
2026-04-24 05:43 -15.62983 48.68570 30064 ft 549 kts 308°
2026-04-24 05:44 -15.58025 48.62452 30055 ft 548 kts 308°
2026-04-24 05:44 -15.53106 48.56387 30046 ft 548 kts 308°
2026-04-24 05:45 -15.48190 48.50332 30040 ft 547 kts 308°
2026-04-24 05:45 -15.43284 48.44293 30023 ft 547 kts 308°
2026-04-24 05:46 -15.38354 48.38230 30000 ft 547 kts 308°
2026-04-24 05:46 -15.33476 48.32235 29985 ft 547 kts 308°
2026-04-24 05:47 -15.28552 48.26189 29966 ft 547 kts 308°
2026-04-24 05:47 -15.23640 48.20164 29970 ft 547 kts 308°
2026-04-24 05:48 -15.18725 48.14137 29951 ft 546 kts 309°
2026-04-24 05:48 -15.13784 48.08084 29935 ft 546 kts 309°
2026-04-24 05:49 -15.08872 48.02072 29921 ft 545 kts 309°
2026-04-24 05:49 -15.03987 47.96099 29917 ft 545 kts 309°
2026-04-24 05:50 -14.99045 47.90058 29918 ft 546 kts 309°
2026-04-24 05:50 -14.94137 47.84066 29926 ft 544 kts 309°
2026-04-24 05:51 -14.89225 47.78072 29933 ft 543 kts 309°
2026-04-24 05:51 -14.84321 47.72092 29929 ft 544 kts 309°
2026-04-24 05:52 -14.79423 47.66125 29922 ft 543 kts 309°
2026-04-24 05:52 -14.74512 47.60146 29917 ft 542 kts 309°
2026-04-24 05:53 -14.69607 47.54180 29909 ft 542 kts 309°
2026-04-24 05:53 -14.64698 47.48213 29908 ft 542 kts 309°